TDF 1

operational
NORAD ID: 19621 Int'l Des: 1988-098 Owner: FTEL Country: F
HEOCIRCULAR

About TDF 1

Description loading...

Live Position

Loading 3D Globe...

Upcoming Passes

Altitude History

Altitude vs Time

uPlot chart will show altitude changes over time

Two-Line Element Set

1 19621U 88098A 26061.84072336 .00000035 00000-0 00000+0 0 9997
2 19621 14.7551 351.1362 0012262 270.9056 272.5361 0.99190353132794
Epoch: Mar 2, 2026 • Age: 31 hours

Current Status

Altitude 36072.0 km
Velocity 3.07 km/s
Sub-Earth Point -5.67°S, 70.44°E
Launch Date Oct 28, 1988
Age 37.3 years
Type other

Technical Details

Classification Payload
Mass 2077.00 kg
Dry Mass 1034.00 kg
Total Mass 2077.00 kg
Length 6.20 m
Diameter 2.00 m
Span 19.30 m
Shape Box + 2 Pan
Manufacturer AESPC
Bus Type Spacebus 300
Phase Status In Orbit
Owner/State FTEL/F

Large Constellations

Loading constellations...